Regional Weather Roundup
Issued by NWS Portland, ME

Current Version | Previous Version | Text Only | Print | Product List | Glossary Off
Versions: 1 2 3 4 5 6 7 8 9 10 11 12 13 14 15 16 17 18 19 20 21 22 23 24 25 26 27 28 29 30 31 32 33 34 35 36 37 38 39 40 41 42 43 44 45 46 47 48 49 50
000 ASUS41 KGYX 201305 RWRGYX WEATHER ROUNDUP FOR MAINE AND NEW HAMPSHIRE NATIONAL WEATHER SERVICE GRAY ME 900 AM EDT MON MAY 20 2019 MEZ002-005-006-010-012-015-018-020-021-024-026-027-029-201400- MAINE CITY SKY/WX TMP DP RH WIND PRES REMARKS PORTLAND LGT RAIN 54 52 93 CALM 29.78F FOG SANFORD CLOUDY 58 56 93 CALM 29.77F FOG BAR HARBOR LGT RAIN 51 50 96 VRB3 29.81R VSB 3/4 WISCASSET CLOUDY 51 50 96 CALM 29.80S ROCKLAND LGT RAIN 49 49 100 CALM 29.79S VSB 1/2 FRYEBURG CLOUDY 54 53 97 CALM 29.75F AUGUSTA LGT RAIN 50 50 100 CALM 29.78S WATERVILLE LGT RAIN 49 48 97 CALM 29.75S BANGOR LGT RAIN 50 49 96 S10 29.77F FOG GREENVILLE N/A 44 43 96 CALM 29.71F MILLINOCKET LGT RAIN 47 45 93 CALM 29.75F FOG HOULTON HVY RAIN 47 45 93 SE5 29.75S FOG PRESQUE ISLE LGT RAIN 47 45 93 S10 29.74F FRENCHVILLE LGT RAIN 47 43 86 SE9 29.73F CARIBOU CLOUDY 47 45 93 S3 29.74S $$ NHZ002-005-008-009-011-012-014-201400- NEW HAMPSHIRE CITY SKY/WX TMP DP RH WIND PRES REMARKS PORTSMOUTH CLOUDY 69 66 90 SW7 29.75F ROCHESTER FAIR 66 62 87 S3 29.76F NASHUA FAIR 71 67 87 VRB3 29.78F MANCHESTER CLOUDY 71 64 78 S8 29.76F CONCORD FAIR 69 63 81 S6 29.77F LACONIA LGT RAIN 63 62 97 SW5 29.75F PLYMOUTH CLOUDY 60 59 96 CALM 29.75F FOG BERLIN CLOUDY 60 56 86 CALM 29.74S WHITEFIELD PTSUNNY 67 63 87 CALM 29.73F JAFFREY FAIR 68 62 81 S8 29.81S KEENE FAIR 68 64 87 S8 29.78S LEBANON CLOUDY 68 63 84 S7 29.74F MT WASHINGTON FOG 48 48 100 W52 N/A VSB 0 $$ VTZ005-007-008-201400- VERMONT CITY SKY/WX TMP DP RH WIND PRES REMARKS ST JOHNSBURY N/A 68 65 90 MISG 29.69F MONTPELIER FAIR 69 60 73 S10 29.76F BURLINGTON PTSUNNY 70 63 78 S15 29.68F $$ MAZ007-012-024-CTZ003-RIZ002-NYZ038-NYZ072-201400- SOUTHERN NEW ENGLAND AND NY CITY SKY/WX TMP DP RH WIND PRES REMARKS BOSTON CLOUDY 69 63 81 SW12 29.80F WORCESTER PTSUNNY 65 63 93 SW10 29.83S NANTUCKET FOG 58 57 97 SW10 29.88S VSB 1/4 PROVIDENCE PTSUNNY 67 63 87 SW3 29.83F HARTFORD CLOUDY 68 64 87 S10 29.80F ALBANY LGT RAIN 65 61 87 S7 29.78S NEW YORK CITY PTSUNNY 77 64 64 SW16 29.83S $$ ANZ081-ANZ082-ANZ150-NHZ014-MEZ023>029-201400- COASTAL MARINE OBSERVATIONS STATION/POSITION TIME TEMP WIND PRES WAVE AIR SEA DIR/SP/G HT/PER (UTC) (F) (DEG/KT/KT) (MB) (FT/S) ISLE OF SHOALS 1200 63 210/ 12/ 13 1008.2R JEFFREYS LEDGE 1238 49 N/A 4/ 6 CASHES LEDGE BUO 1250 51 45 1009.1 4/ 6 GEORGES BANK BUO 1250 53 45 190/ 16/ 19 1016.0F 4/ 5 $$ .............KEY.............. WCI - WIND CHILL TC - TEMPERATURE IN CELSIUS VSB - VISIBILITY IN MILES HX - HEAT INDEX FAIR- INDICATES FEW OR NO CLOUDS BELOW 12,000 FT, WITH NO SIGNIFICANT WEATHER AND/OR OBSTRUCTIONS TO VISIBILITY.

USA.gov is the U.S. government's official web portal to all federal, state and local government web resources and services.